Regional Weather Roundup
Issued by NWS Grand Forks, ND

Home | Current Version | Previous Version | Text Only | Print | Product List | Glossary On
Versions: 1 2 3 4 5 6 7 8 9 10 11 12 13 14 15 16 17 18 19 20 21 22 23 24 25 26 27 28 29 30 31 32 33 34 35 36 37 38 39 40 41 42 43 44 45 46 47 48 49 50
000
ASUS43 KFGF 270910
RWRFGF
PRAIRIE TO PINES  WEATHER ROUNDUP
NATIONAL WEATHER SERVICE EASTERN NORTH DAKOTA/GRAND FORKS ND
400 AM CDT WED MAY 27 2015

 **SATELLITE DATA USED TO AUGMENT SKY COVER AT AUTOMATED STATIONS**
 *****  WEATHER ACROSS EASTERN NORTH DAKOTA  *****

CITY           SKY/WX    TMP DP  RH WIND       PRES   REMARKS
GRAND FORKS    CLEAR     58  47  66 NW9       29.81R
GRAND FRKS AFB CLEAR     59  47  65 NW8       29.83R
GRAND FRKS NWS   N/A     57 N/A N/A N5          N/A
DEVILS LAKE    CLEAR     55  46  71 W7        29.86S
FARGO          CLEAR     56  49  77 W3        29.81R
WAHPETON ARPT  SUNNY     54  48  82 W6        29.83R
$$

 ***** WEATHER ACROSS CENTRAL AND WESTERN NORTH DAKOTA  *****

CITY           SKY/WX    TMP DP  RH WIND       PRES   REMARKS
BISMARCK       CLEAR     51  48  89 CALM      29.93R
MINOT          CLEAR     59  46  62 SW12      29.88R
JAMESTOWN      CLEAR     56  48  74 W9        29.87S
MINOT AFB      CLEAR     54  53  97 W6        29.87R
GARRISON         N/A     54  46  74 W3        29.90R
WILLISTON      PTCLDY    51  44  77 CALM      29.91R
DICKINSON      CLEAR     50  43  77 SW7       29.94R
HETTINGER      CLEAR     44  40  85 CALM      29.97S
$$

 *****  OTHER AIRPORT OBSERVATIONS IN OUR AREA  *****

CITY           SKY/WX    TMP DP  RH WIND       PRES   REMARKS
WALHALLA       FAIR      55  46  71 MISG      29.87R
GRAFTON AIRPOR FAIR      61  50  67 N13       29.83R
VALLEY CITY AR FAIR      55  48  76 NW12      29.86R
CANDO          PTSUNNY   52  46  82 N8        29.88R
CAVALIER APRT  FAIR      57  48  72 N13       29.85R
GWINNER        NOT AVBL
SHEYENNE NWR     N/A     52  49  90 W2        29.95S
ROLLA          PTSUNNY   55  46  71 N10       29.92R
 ***** THE ABOVE OBSERVATIONS ARE NON NWS ARE NOT QUALITY
       CONTROLLED AND MAY MIS-REPORT RAIN FOR SNOW...
$$

  *****  WEATHER ACROSS NORTHERN MINNESOTA  *****

CITY           SKY/WX    TMP DP  RH WIND       PRES   REMARKS
FLAG ISLAND    CLEAR     59  48  67 NW14      29.77R
WARROAD        CLEAR     55  48  76 NW9       29.79R
ROSEAU         CLEAR     55  48  76 NW6       29.80R
HALLOCK        PTCLDY    55  48  76 N8        29.82R
THF RVR FALLS  MOCLDY    57  52  82 NW6       29.80R
BAUDETTE       CLEAR     56  50  80 NW7       29.76R
WASKISH        CLEAR     57  55  94 CALM      29.77R
CROOKSTON      PTCLDY    54  46  76 N9        29.81R
STEPHEN NDAWN    N/A     59  50  72 NW8         N/A
GREENBUSH NDAW   N/A     57  48  72 N9          N/A
$$
  *****  WEATHER ACROSS CENTRAL AND WEST MINNESOTA  *****

CITY           SKY/WX    TMP DP  RH WIND       PRES   REMARKS
FOSSTON        PTCLDY    52  50  93 S5        29.81R
BEMIDJI        CLEAR     51  48  92 W3        29.79R
PARK RAPIDS    CLEAR     55  50  83 CALM      29.80R
ELBOW LAKE     FAIR      53  51  91 SW7       29.83R
WADENA         CLEAR     54  52  94 W3        29.81S
DETROIT LAKES  CLEAR     55  52  88 CALM      29.83R
MOORHEAD       CLEAR     55  52  88 CALM      29.82R
FERGUS FALLS   CLEAR     55  54  94 CALM      29.83R
MORRIS MN      CLEAR     55  52  88 W8        29.83R
STAPLES        PTCLDY    52  50  93 CALM      29.82R
$$
  *****  WEATHER ELSEWHERE ACROSS MINNESOTA  *****

CITY           SKY/WX    TMP DP  RH WIND       PRES   REMARKS
DULUTH         MOCLDY    52  48  86 W8        29.79S
INTRNTL FALLS  CLEAR     48  47  96 CALM      29.75R
ELY            NOT AVBL
CLOQUET        MOCLDY    54  48  82 W6        29.80S
WHEATON        CLEAR     57  48  72 W5        29.86R
BRAINERD       MOCLDY    51  51 100 SW5       29.81S
HIBBING        MOCLDY    47  45  93 CALM      29.78S FOG
ALEXANDRIA     CLEAR     54  53  97 SW6       29.84S
SAINT CLOUD    CLOUDY    52  52 100 SE3       29.83R
MINNEAPOLIS    CLOUDY    56  55  97 SW6       29.85R
$$

  *****  WEATHER ACROSS SOUTH DAKOTA  *****

CITY           SKY/WX    TMP DP  RH WIND       PRES   REMARKS
SIOUX FALLS    CLEAR     53  49  86 CALM      29.92R
BROOKINGS      CLEAR     54  48  82 W3        29.91S
WATERTOWN      CLEAR     58  49  72 W8        29.90R
HURON          CLEAR     54  49  83 SW6       29.91S
SISSETON         N/A     63  49  60 NW12      29.84R
ABERDEEN       CLEAR     53  49  86 W6        29.89S
MITCHELL       CLEAR     57  51  80 W7        29.93R
PIERRE         CLEAR     54  48  80 CALM      29.95R
MOBRIDGE       CLEAR     53  51  93 CALM      29.92R
RAPID CITY     MOCLDY    51  48  89 SE5       29.97S
$$

  *****  SOME WEATHER IN NEARBY STATES *****

CITY           SKY/WX    TMP DP  RH WIND       PRES   REMARKS
GLASGOW MT     MOCLDY    59  48  67 N8        29.89S THUNDER
GREAT FALLS MT MOCLDY    47  45  93 W5        29.99R
CHEYENNE WY    CLOUDY    48  46  93 SW6       30.08S
SCOTTSBLUFF NE CLOUDY    53  51  93 SE7       30.03S
OMAHA NE       CLEAR     54  53  97 SE5       29.97R
DES MOINES IA  CLOUDY    60  56  86 W7        29.92R
DAVENPORT IA   CLEAR     61  58  90 SW10      29.89R
CHICAGO IL     PTCLDY    65  61  87 SW9       29.85R
EAU CLAIRE WI  CLOUDY    56  54  93 W7        29.81R
LA CROSSE WI   LGT RAIN  60  57  89 W5        29.82R
$$

  *****  SOME NATIONAL WEATHER *****

CITY           SKY/WX    TMP DP  RH WIND       PRES   REMARKS
LA GUARDIA NY  PTCLDY    67  60  78 S8        30.15R
RALEIGH NC     CLOUDY    71  67  87 S6        30.20S
ATLANTA GA     CLOUDY    67  64  90 CALM      30.20S
NEW ORLEANS LA MOCLDY    77  73  87 E6        30.10R
OKLAHOMA CITY  PTCLDY    64  61  90 CALM      30.02R
ALBUQUERQUE NM PTCLDY    62  43  49 NW10      30.11R
SALT LAKE CITY PTCLDY    54  47  77 SE8       30.05R
LOS ANGELES CA CLOUDY    59  54  83 W3        30.00S
BOISE ID       MOCLDY    58  48  69 SW3       29.95R
SEATTLE WA     PTCLDY    56  51  84 SE5       30.06R
$$

*** WEATHER ACROSS MANITOBA...SASKATCHEWAN AND ONTARIO ***
                ***ONTARIO***

CITY           SKY/WX    TMP DP  RH WIND       PRES   REMARKS
GERALDTON      MOCLDY    50  48  93 S3        29.67F
THUNDER BAY    MOCLDY    52  52 100 W3        29.70S
SIOUX LOOKOUT  MOCLDY    46  46 100 CALM      29.71S
TORONTO        MOCLDY    70  64  83 SW13      29.93R
BIG TROUT LK   CLOUDY    32  30  93 N10       29.92R WCI  24
PICKLE LAKE    NOT AVBL
DRYDEN         CLEAR     55  46  71 W8        29.73R
KENORA         MOCLDY    55  50  82 N8        29.78R
$$
                *** MANITOBA***

CITY           SKY/WX    TMP DP  RH WIND       PRES   REMARKS
BRANDON        PTCLDY    48  41  76 NE14      29.94R
DAUPHIN        MOCLDY    45  39  81 N12       30.01R
ISLAND LAKE    PTCLDY    36  30  80 N7        30.00R
PILOT MOUND    NOT AVBL
THE PAS        CLEAR     36  34  93 E3        30.06R
THOMPSON       CLEAR     23  19  86 CALM      30.06R
WINNIPEG       PTCLDY    48  41  76 N8        29.88R
LYNN LAKE      CLEAR     34  27  75 NW7       30.06R
CHURCHILL      MOCLDY    32  30  93 N16G24    30.00R WCI  21
GILLAM         CLEAR     25  21  86 S6        30.04R WCI  18
$$
                ***SASKATCHEWAN***

CITY           SKY/WX    TMP DP  RH WIND       PRES   REMARKS
ESTEVAN        PTCLDY    50  45  81 W5        29.90R
KINDERSLEY     CLOUDY    54  45  71 E16       29.96F
LLOYDMINSTER   CLEAR     45  34  65 E5        30.01S
PRINCE ALBERT  PTCLDY    34  32  93 NE6       30.04S
REGINA         MOCLDY    57  46  67 NE18      29.93R
YORKTON        CLEAR     45  41  87 NE10      29.99R
N. BATTLEFORD  CLEAR     48  39  71 E9        30.03S
LA RONGE       PTCLDY    32  32 100 CALM      30.06R
SASKATOON      CLEAR     46  43  87 E10       30.03R
SWIFT CURRENT  CLEAR     54  48  82 E12       29.92S
$$
NOTE: THESE ARE AUTOMATED STATIONS WITH LIMITED QUALITY CONTROL
      "FAIR" INDICATES FEW OR NO CLOUDS BELOW 12,000 FEET WITH NO
      SIGNIFICANT WEATHER AND/OR OBSTRUCTIONS TO VISIBILITY.
      SKY/WX - SKY CONDITION AND SIGNIFICANT WEATHER.
      TMP - AIR TEMPERATURE.    DP   - DEWPOINT TEMPERATURE.
      RH  - RELATIVE HUMIDITY.  PRES - PRESSURE.
      HX  - HEAT INDEX.         WCI  - WIND CHILL INDEX.
$


USA.gov is the U.S. government's official web portal to all federal, state and local government web resources and services.